Weather in Fuji

Japan     35°13′59″N   138°43′37″E
temp.,
°C
wind,
m/s
gust,
m/s
humid.,
%
clouds,
%
prec.,
mm/h
press.,
hPa
HPBL,
m
14 june, mon
mon1400:00+15nnw1185100 0.1 101022
03:00+15nne1185100 0.1 100918
06:00+17ese0183100 0.1 100984
09:00+20sse2164100 0.1 1009739
12:00+21ssw2261100 0.1 1007821
15:00+19s2273100 0.6 1007539
18:00+17nne1191100 3.3 100851
21:00+16n119368 4.4 100819
15 june, tue
tue1500:00+15nne119043 0.0 100811
03:00+14n11910 0.0 100713
06:00+17ne11840 0.0 100862
09:00+22se226517 0.0 1007868
12:00+22s337087 1.1 1007909
15:00+20ssw337998 2.1 1007773
18:00+18sw1292100 0.8 1008235
21:00+16wnw1194100 0.9 100923
16 june, wed
wed1600:00+16nnw1195100 0.7 100932
03:00+16n1194100 3.7 100820
06:00+16ne1196100 3.4 100941
09:00+18ese1191100 5.9 1009316
12:00+16sse12100100 8.6 1009170
15:00+16sse1299100 19.6 1008137
18:00+15e1398100 4.7 1009123
21:00+15e2399100 14.3 1010172
17 june, thu
thu1700:00+15ene2397100 4.4 1009119
03:00+14ne2398100 11.4 1008126
06:00+15ne2297100 5.5 100996
09:00+14ene2397100 11.1 1008165
12:00+18ene2383100 1.8 1007488
15:00+18e348082 2.1 1007630
18:00+16ene358865 0.1 1007365
21:00+14ne349172 0.1 1008193
18 june, fri
fri1800:00+14ne239275 0.0 100790
03:00+13nne238991 0.0 100747
06:00+15ne228317 0.0 1007103
09:00+20ese236237 0.0 10061007
12:00+21se336087 0.0 10051282
15:00+19ese237388 0.1 1005915
18:00+18ese1281100 0.1 100578
21:00+15ne228850 0.1 100536